Newton, KS

4:23 AM CST on November 15, 2019 (GMT -0600)
Newton City County

Weather History for KEWK - August, 2019

Change the Weather History Date:

Saturday, August 3, 2019

  Actual Average Record
Temperature  
Mean Temperature 76 °F -  
Max Temperature 82 °F 87 °F 105 °F (2010)
Min Temperature 69 °F 66 °F 64 °F (1996)
Cooling Degree Days 10    
Growing Degree Days 26 (Base 50)    
Moisture  
Dew Point 71 °F    
Average Humidity 90    
Maximum Humidity 100    
Minimum Humidity 67    
Precipitation  
Precipitation 1.10 in - - ()
Sea Level Pressure  
Sea Level Pressure 30.02 in    
Wind  
Wind Speed 6 mph (East)    
Max Wind Speed 13 mph    
Max Gust Speed -    
Visibility 7 miles    
Events Rain , Thunderstorm    
Averages and records for this station are not official NWS values.
T = Trace of Precipitation, MM = Missing Value Source: NWS Daily Summary

Daily Weather History Graph

Daily Weather History Graph

Search for Another Location

Airport or City:

Astronomy

Aug. 03, 2019 Rise Set
Actual Time 6:33 AM CDT 8:36 PM CDT
Civil Twilight 6:04 AM CDT 9:05 PM CDT
Nautical Twilight 5:28 AM CDT 9:40 PM CDT
Astronomical Twilight 4:50 AM CDT 10:19 PM CDT
Moon 9:26 AM CDT (8/3) 10:45 PM CDT (8/3)
Length of Visible Light 15h 01m
Length of Day
14h 02m
Waxing Crescent, 10% of the Moon is Illuminated
Aug 3
Waxing Crescent
Aug 7
First Quarter
Aug 15
Full
Aug 23
Last Quarter
Aug 30
New

Hourly Weather History & Observations

Time (CDT) Temp. Heat Index Dew Point Humidity Pressure Visibility Wind Dir Wind Speed Gust Speed Precip Events Conditions
12:56 AM 71.1 °F - 70.0 °F 96% 30.00 in 10.0 mi ESE 10.4 mph - N/A   Unknown
1:56 AM 71.1 °F - 70.0 °F 96% 30.00 in 10.0 mi East 5.8 mph - N/A   Unknown
2:56 AM 71.1 °F - 70.0 °F 96% 30.00 in 10.0 mi SE 4.6 mph - N/A   Unknown
3:56 AM 71.1 °F - 70.0 °F 96% 30.00 in 2.5 mi SE 6.9 mph - 0.33 in Rain Heavy Rain
4:03 AM 71.6 °F - 69.8 °F 94% 30.04 in 1.0 mi Variable 4.6 mph - 0.31 in Rain Heavy Rain
4:07 AM 69.8 °F - 69.8 °F 100% 30.04 in 1.2 mi SE 8.1 mph - 0.45 in Rain , Thunderstorm Heavy Thunderstorms and Rain
4:13 AM 71.6 °F - 69.8 °F 94% 30.04 in 1.5 mi Calm Calm - 0.54 in Rain , Thunderstorm Heavy Thunderstorms and Rain
4:20 AM 71.6 °F - 69.8 °F 94% 30.04 in 2.0 mi SSE 8.1 mph - 0.63 in Rain , Thunderstorm Heavy Thunderstorms and Rain
4:26 AM 71.6 °F - 69.8 °F 94% 30.04 in 3.0 mi ESE 11.5 mph - 0.67 in Rain Heavy Rain
4:33 AM 69.8 °F - 69.8 °F 100% 30.04 in 4.0 mi ESE 5.8 mph - 0.68 in Rain Light Rain
4:40 AM 69.8 °F - 69.8 °F 100% 30.04 in 3.0 mi East 6.9 mph - 0.74 in Rain Heavy Rain
4:56 AM 70.0 °F - 69.1 °F 97% 30.00 in 8.0 mi East 3.5 mph - 0.76 in Rain Light Rain
5:56 AM 70.0 °F - 69.1 °F 97% 29.99 in 6.0 mi Calm Calm - 0.01 in   Scattered Clouds
6:14 AM 69.8 °F - 69.8 °F 100% 30.03 in 5.0 mi East 3.5 mph - N/A   Mostly Cloudy
6:56 AM 70.0 °F - 70.0 °F 100% 30.00 in 3.0 mi East 3.5 mph - N/A   Mist
7:06 AM 69.8 °F - 69.8 °F 100% 30.04 in 3.0 mi NE 3.5 mph - N/A   Overcast
7:18 AM 69.8 °F - 69.8 °F 100% 30.05 in 4.0 mi ENE 3.5 mph - N/A   Overcast
7:43 AM 71.6 °F - 69.8 °F 94% 30.05 in 5.0 mi East 3.5 mph - N/A   Overcast
7:56 AM 71.1 °F - 70.0 °F 96% 30.02 in 5.0 mi NE 4.6 mph - N/A   Overcast
8:18 AM 71.6 °F - 69.8 °F 94% 30.06 in 9.0 mi ENE 3.5 mph - N/A   Overcast
8:36 AM 71.6 °F - 69.8 °F 94% 30.06 in 7.0 mi Variable 3.5 mph - N/A   Overcast
8:56 AM 72.0 °F - 71.1 °F 97% 30.03 in 7.0 mi East 4.6 mph - N/A   Overcast
9:24 AM 71.6 °F - 71.6 °F 100% 30.07 in 8.0 mi East 5.8 mph - N/A   Overcast
9:56 AM 73.0 °F - 71.1 °F 93% 30.03 in 8.0 mi East 5.8 mph - N/A   Overcast
10:56 AM 73.9 °F - 72.0 °F 93% 30.04 in 9.0 mi ESE 6.9 mph - N/A   Overcast
11:53 AM 75.2 °F - 71.6 °F 89% 30.08 in 10.0 mi Variable 3.5 mph - N/A   Overcast
11:56 AM 75.9 °F - 72.0 °F 87% 30.03 in 10.0 mi NE 3.5 mph - N/A   Overcast
12:36 PM 78.8 °F - 71.6 °F 78% 30.07 in 10.0 mi Variable 5.8 mph - N/A   Mostly Cloudy
12:56 PM 79.0 °F - 71.1 °F 77% 30.02 in 10.0 mi Calm Calm - N/A   Unknown
1:56 PM 79.0 °F - 71.1 °F 77% 30.01 in 10.0 mi East 3.5 mph - N/A   Mostly Cloudy
2:56 PM 82.9 °F 88.0 °F 72.0 °F 69% 29.99 in 10.0 mi Variable 4.6 mph - N/A   Mostly Cloudy
3:56 PM 82.9 °F 88.0 °F 72.0 °F 69% 29.98 in 10.0 mi NE 9.2 mph - 0.00 in   Mostly Cloudy
4:56 PM 82.0 °F 86.3 °F 71.1 °F 69% 29.97 in 10.0 mi NNE 10.4 mph - N/A   Clear
5:56 PM 82.9 °F 87.5 °F 71.1 °F 67% 29.96 in 10.0 mi ENE 5.8 mph - N/A   Mostly Cloudy
6:56 PM 82.0 °F 86.3 °F 71.1 °F 69% 29.96 in 10.0 mi NE 11.5 mph - N/A   Partly Cloudy
7:56 PM 79.0 °F - 72.0 °F 79% 29.97 in 10.0 mi SE 12.7 mph - N/A   Overcast
8:06 PM 78.8 °F - 71.6 °F 78% 30.01 in 10.0 mi SE 10.4 mph - N/A   Overcast
8:19 PM 77.0 °F - 71.6 °F 83% 30.02 in 10.0 mi SE 6.9 mph - N/A   Overcast
8:56 PM 75.9 °F - 72.0 °F 87% 29.99 in 10.0 mi ESE 5.8 mph - N/A   Mostly Cloudy
9:04 PM 75.2 °F - 71.6 °F 89% 30.03 in 10.0 mi ESE 6.9 mph - N/A   Mostly Cloudy
9:56 PM 73.9 °F - 71.1 °F 91% 30.00 in 10.0 mi East 5.8 mph - N/A   Clear
10:56 PM 73.0 °F - 71.1 °F 93% 30.02 in 10.0 mi ESE 4.6 mph - N/A   Clear
11:56 PM 72.0 °F - 70.0 °F 93% 30.03 in 10.0 mi Calm Calm - N/A   Clear